Charlevoix, MI

7:32 PM EDT on September 24, 2016 (GMT -0400)
Charlevoix Municipal

Weather History for KCVX - March, 2014

Change the Weather History Date:

Saturday, March 22, 2014

  Actual Average Record
Temperature  
Mean Temperature 21 °F -  
Max Temperature 32 °F 47 °F 66 °F (2012)
Min Temperature 10 °F 31 °F 10 °F (2014)
Degree Days  
Heating Degree Days 44    
Moisture  
Dew Point 17 °F    
Average Humidity 81    
Maximum Humidity 99    
Minimum Humidity 62    
Precipitation  
Precipitation 0.00 in - - ()
Sea Level Pressure  
Sea Level Pressure 30.09 in    
Wind  
Wind Speed 7 mph (NW)    
Max Wind Speed 20 mph    
Max Gust Speed 28 mph    
Visibility 9 miles    
Events Snow    
Averages and records for this station are not official NWS values.
T = Trace of Precipitation, MM = Missing Value Source: NWS Daily Summary

Daily Weather History Graph

Daily Weather History Graph

Search for Another Location

Airport or City:

Trip Planner

Search our weather history database for the weather conditions in past years. The results will help you decide how hot, cold, wet, or windy it might be!

Date:

Astronomy

Mar. 22, 2014 Rise Set
Actual Time 7:40 AM EDT 7:56 PM EDT
Civil Twilight 7:10 AM EDT 8:25 PM EDT
Nautical Twilight 6:36 AM EDT 9:00 PM EDT
Astronomical Twilight 6:00 AM EDT 9:36 PM EDT
Moon 1:27 AM EDT (3/22) 11:09 AM EDT (3/22)
Length of Visible Light 13h 14m
Length of Day
12h 15m
Waning Gibbous, 65% of the Moon is Illuminated
Mar 22
Waning Gibbous
Mar 23
Last Quarter
Mar 30
New
Apr 7
First Quarter
Apr 15
Full

Hourly Weather History & Observations

Time (EDT) Temp. Windchill Dew Point Humidity Pressure Visibility Wind Dir Wind Speed Gust Speed Precip Events Conditions
12:14 AM 32.0 °F - 31.1 °F 96% 29.81 in 7.0 mi Calm Calm - N/A   Overcast
12:35 AM 31.6 °F - 30.9 °F 97% 29.80 in 7.0 mi Calm Calm - N/A   Overcast
12:55 AM 31.6 °F - 30.9 °F 97% 29.81 in 7.0 mi Calm Calm - N/A   Overcast
1:15 AM 31.8 °F - 31.1 °F 97% 29.80 in 7.0 mi Calm Calm - N/A   Overcast
1:35 AM 32.0 °F - 31.5 °F 98% 29.80 in 7.0 mi Calm Calm - N/A   Overcast
1:55 AM 32.9 °F - 32.0 °F 96% 29.81 in 7.0 mi Calm Calm - N/A   Overcast
2:15 AM 32.0 °F - 31.1 °F 96% 29.81 in 7.0 mi Calm Calm - N/A   Overcast
2:35 AM 32.0 °F - 31.1 °F 96% 29.80 in 7.0 mi Calm Calm - N/A   Overcast
2:54 AM 32.2 °F - 32.0 °F 99% 29.81 in 5.0 mi Calm Calm - N/A Snow Light Snow
3:15 AM 32.4 °F - 31.5 °F 96% 29.82 in 4.0 mi Calm Calm - N/A Snow Light Snow
3:35 AM 30.9 °F 25.2 °F 29.7 °F 95% 29.82 in 4.0 mi NNW 5.8 mph - N/A Snow Light Snow
3:54 AM 29.8 °F 26.3 °F 29.1 °F 97% 29.83 in 7.0 mi NNW 3.5 mph - N/A Snow Light Snow
4:15 AM 30.2 °F 26.7 °F 29.3 °F 96% 29.84 in 4.0 mi NW 3.5 mph - N/A Snow Light Snow
4:35 AM 30.0 °F 26.5 °F 28.8 °F 95% 29.84 in 7.0 mi WNW 3.5 mph - N/A   Overcast
4:54 AM 28.6 °F 20.7 °F 27.3 °F 95% 29.86 in 10.0 mi NW 8.1 mph - N/A   Overcast
5:15 AM 27.0 °F 20.5 °F 26.2 °F 97% 29.87 in 10.0 mi NW 5.8 mph - N/A   Overcast
5:35 AM 26.4 °F 18.9 °F 25.7 °F 97% 29.88 in 7.0 mi NW 6.9 mph - N/A   Overcast
5:54 AM 27.0 °F 19.5 °F 26.4 °F 98% 29.89 in 10.0 mi WNW 6.9 mph - N/A   Overcast
6:15 AM 27.7 °F 19.6 °F 27.3 °F 99% 29.90 in 7.0 mi NW 8.1 mph - N/A   Overcast
6:35 AM 28.4 °F 21.2 °F 28.0 °F 99% 29.92 in 7.0 mi WNW 6.9 mph - N/A   Overcast
6:55 AM 28.4 °F 22.2 °F 27.5 °F 96% 29.93 in 10.0 mi WNW 5.8 mph - N/A   Overcast
7:15 AM 28.8 °F 22.6 °F 27.9 °F 96% 29.94 in 10.0 mi WNW 5.8 mph - N/A   Overcast
7:35 AM 29.3 °F 21.5 °F 28.4 °F 96% 29.95 in 3.0 mi West 8.1 mph - N/A   Overcast
7:55 AM 29.3 °F 18.6 °F 28.8 °F 98% 29.96 in 3.0 mi WNW 13.8 mph 19.6 mph N/A   Overcast
8:15 AM 28.2 °F 17.2 °F 27.0 °F 95% 29.97 in 10.0 mi WNW 13.8 mph 19.6 mph N/A   Overcast
8:35 AM 25.2 °F 11.2 °F 23.2 °F 92% 29.99 in 4.0 mi WNW 19.6 mph 27.6 mph N/A Snow Light Snow
8:55 AM 23.5 °F 9.0 °F 21.6 °F 92% 30.01 in 5.0 mi WNW 19.6 mph 26.5 mph N/A   Overcast
9:15 AM 22.1 °F 8.5 °F 19.9 °F 91% 30.03 in 5.0 mi NW 16.1 mph 25.3 mph N/A Snow Light Snow
9:34 AM 21.2 °F 6.8 °F 18.3 °F 89% 30.05 in 7.0 mi NW 17.3 mph 26.5 mph N/A   Overcast
9:55 AM 20.8 °F 7.3 °F 17.1 °F 85% 30.07 in 10.0 mi NW 15.0 mph 24.2 mph N/A   Overcast
10:15 AM 20.3 °F 8.3 °F 16.3 °F 85% 30.09 in 10.0 mi NW 11.5 mph 21.9 mph N/A   Overcast
10:34 AM 20.3 °F 7.7 °F 15.1 °F 80% 30.10 in 10.0 mi NW 12.7 mph 20.7 mph N/A   Overcast
10:55 AM 18.9 °F 3.3 °F 12.9 °F 78% 30.12 in 10.0 mi NW 18.4 mph 26.5 mph N/A   Overcast
11:15 AM 19.0 °F 4.5 °F 12.9 °F 77% 30.13 in 10.0 mi WNW 16.1 mph 24.2 mph N/A   Overcast
11:34 AM 19.4 °F 5.0 °F 12.4 °F 74% 30.13 in 10.0 mi WNW 16.1 mph 24.2 mph N/A   Overcast
11:55 AM 18.9 °F 3.3 °F 11.7 °F 74% 30.14 in 10.0 mi NW 18.4 mph 25.3 mph N/A   Overcast
12:14 PM 19.4 °F 4.1 °F 12.0 °F 73% 30.15 in 10.0 mi NW 18.4 mph 25.3 mph N/A   Overcast
12:35 PM 18.9 °F 4.3 °F 11.7 °F 74% 30.16 in 10.0 mi NW 16.1 mph - N/A   Overcast
12:55 PM 18.9 °F 2.9 °F 11.5 °F 73% 30.17 in 10.0 mi NW 19.6 mph 25.3 mph N/A Snow Light Snow
1:15 PM 19.4 °F 5.0 °F 11.5 °F 71% 30.17 in 10.0 mi WNW 16.1 mph 23.0 mph N/A   Overcast
1:35 PM 19.0 °F 6.8 °F 10.4 °F 69% 30.18 in 10.0 mi NW 11.5 mph 19.6 mph N/A   Overcast
1:55 PM 19.6 °F 7.4 °F 10.8 °F 69% 30.19 in 10.0 mi NW 11.5 mph - N/A   Overcast
2:15 PM 19.4 °F 6.6 °F 10.8 °F 69% 30.19 in 10.0 mi NNW 12.7 mph 17.3 mph N/A   Overcast
2:35 PM 19.4 °F 5.0 °F 10.2 °F 68% 30.19 in 10.0 mi NW 16.1 mph 20.7 mph N/A   Overcast
2:55 PM 19.4 °F 5.5 °F 10.2 °F 68% 30.19 in 10.0 mi NW 15.0 mph 24.2 mph N/A   Overcast
3:15 PM 20.1 °F 5.9 °F 10.9 °F 68% 30.20 in 10.0 mi NW 16.1 mph 23.0 mph N/A   Mostly Cloudy
3:35 PM 19.9 °F 5.7 °F 10.2 °F 66% 30.20 in 10.0 mi NW 16.1 mph 21.9 mph N/A   Mostly Cloudy
3:54 PM 20.3 °F 6.1 °F 10.0 °F 65% 30.20 in 10.0 mi NW 16.1 mph 20.7 mph N/A   Scattered Clouds
4:15 PM 20.3 °F 7.2 °F 9.9 °F 64% 30.21 in 10.0 mi NW 13.8 mph - N/A   Scattered Clouds
4:35 PM 20.3 °F 6.1 °F 10.2 °F 65% 30.21 in 10.0 mi NW 16.1 mph 21.9 mph N/A   Scattered Clouds
4:54 PM 20.1 °F 5.4 °F 10.0 °F 65% 30.21 in 10.0 mi NW 17.3 mph 25.3 mph N/A   Scattered Clouds
5:15 PM 19.8 °F 6.5 °F 9.3 °F 64% 30.22 in 10.0 mi NW 13.8 mph 21.9 mph N/A   Scattered Clouds
5:35 PM 19.8 °F 7.7 °F 9.0 °F 63% 30.22 in 10.0 mi NNW 11.5 mph 19.6 mph N/A   Clear
5:54 PM 19.4 °F 7.2 °F 8.4 °F 62% 30.23 in 10.0 mi NW 11.5 mph 20.7 mph N/A   Clear
6:15 PM 19.0 °F 7.5 °F 7.9 °F 62% 30.23 in 10.0 mi NNW 10.4 mph 20.7 mph N/A   Clear
6:35 PM 18.5 °F 7.5 °F 8.4 °F 65% 30.24 in 10.0 mi NNW 9.2 mph - N/A   Clear
6:55 PM 17.6 °F 4.3 °F 8.2 °F 67% 30.25 in 10.0 mi NNW 12.7 mph - N/A   Clear
7:15 PM 16.7 °F 5.3 °F 7.7 °F 68% 30.26 in 10.0 mi NNW 9.2 mph - N/A   Clear
7:35 PM 15.8 °F 2.7 °F 6.8 °F 68% 30.27 in 10.0 mi NNW 11.5 mph - N/A   Clear
7:55 PM 15.3 °F 2.8 °F 6.1 °F 67% 30.27 in 10.0 mi NNW 10.4 mph - N/A   Clear
8:15 PM 14.5 °F 2.7 °F 6.1 °F 69% 30.28 in 10.0 mi NNW 9.2 mph - N/A   Clear
8:35 PM 14.0 °F 0.5 °F 5.7 °F 70% 30.29 in 10.0 mi NNW 11.5 mph - N/A   Clear
8:55 PM 13.1 °F 0.1 °F 5.7 °F 72% 30.30 in 10.0 mi North 10.4 mph - N/A   Clear
9:15 PM 12.2 °F -0.2 °F 5.5 °F 75% 30.32 in 10.0 mi North 9.2 mph - N/A   Clear
9:34 PM 12.0 °F 0.5 °F 5.4 °F 75% 30.32 in 10.0 mi NNW 8.1 mph - N/A   Clear
9:55 PM 11.8 °F 0.3 °F 4.8 °F 73% 30.33 in 10.0 mi NNW 8.1 mph - N/A   Clear
10:15 PM 11.5 °F 0.9 °F 5.0 °F 75% 30.34 in 10.0 mi NNW 6.9 mph - N/A   Clear
10:34 PM 11.3 °F 0.7 °F 5.0 °F 76% 30.34 in 10.0 mi NNW 6.9 mph - N/A   Clear
10:55 PM 11.3 °F 1.9 °F 5.0 °F 76% 30.35 in 10.0 mi NW 5.8 mph - N/A   Clear
11:15 PM 11.1 °F 4.9 °F 5.0 °F 76% 30.35 in 10.0 mi NW 3.5 mph - N/A   Clear
11:34 PM 10.9 °F - 5.0 °F 77% 30.36 in 10.0 mi Calm Calm - N/A   Clear
11:55 PM 10.4 °F 2.2 °F 4.8 °F 78% 30.36 in 10.0 mi NW 4.6 mph - N/A   Clear